Weather History for Scottsbluff, NE

Change the Weather History Date:

Friday, October 26, 2012

  Actual Average Record
Temperature  
Mean Temperature 33 °F 45 °F  
Max Temperature 40 °F 60 °F 87 °F (1922)
Min Temperature 25 °F 30 °F 0 °F (1997)
Degree Days  
Heating Degree Days 32 20  
Month to date heating degree days 440 406  
Since 1 July heating degree days 516 585  
Cooling Degree Days 0 0  
Month to date cooling degree days 0 0  
Year to date cooling degree days 1208 723  
Moisture  
Dew Point 24 °F    
Average Humidity 73    
Maximum Humidity 92    
Minimum Humidity 54    
Precipitation  
Precipitation 0.00 in 0.02 in 0.39 in (1989)
Month to date precipitation 0.70 0.99  
Year to date precipitation 6.34 14.47  
Snow  
Snow 0.00 in 0.20 in 1.90 in (1951)
Month to date snowfall 6.8 2.1  
Since 1 July snowfall 6.8 2.6  
Snow Depth 0.00 in    
Sea Level Pressure  
Sea Level Pressure 30.41 in    
Wind  
Wind Speed 5 mph (SW)    
Max Wind Speed 17 mph    
Max Gust Speed 22 mph    
Visibility 10 miles    
Events      
T = Trace of Precipitation, MM = Missing Value Source: NWS Daily Summary

Daily Weather History Graph

Daily Weather History Graph

Search for Another Location

Airport:

Trip Planner

Search our weather history database for the weather conditions in past years. The results will help you decide how hot, cold, wet, or windy it might be!

Date:

Astronomy

Oct. 26, 2012 Rise Set
Actual Time 7:20 AM MDT 5:55 PM MDT
Civil Twilight 6:51 AM MDT 6:24 PM MDT
Nautical Twilight 6:18 AM MDT 6:57 PM MDT
Astronomical Twilight 5:46 AM MDT 7:29 PM MDT
Moon 4:14 PM MDT (10/26) 4:16 AM MDT (10/26)
Length of Visible Light 11h 32m
Length of Day
10h 35m
Waxing Gibbous, 91% of the Moon is Illuminated
Oct 26
Waxing Gibbous
Oct 29
Full
Nov 6
Last Quarter
Nov 13
New
Nov 20
First Quarter

Hourly Weather History & Observations

Time (MDT) Temp. Windchill Dew Point Humidity Pressure Visibility Wind Dir Wind Speed Gust Speed Precip Events Conditions
12:28 AM 28.4 °F 24.6 °F 23.0 °F 80% 30.37 in 10.0 mi NNE 3.5 mph - N/A   Mostly Cloudy
12:53 AM 28.0 °F 22.8 °F 23.0 °F 81% 30.45 in 10.0 mi North 4.6 mph - N/A   Mostly Cloudy
1:11 AM 26.6 °F - 24.8 °F 93% 30.37 in 10.0 mi Calm Calm - N/A   Mostly Cloudy
1:25 AM 26.6 °F 22.6 °F 24.8 °F 93% 30.36 in 10.0 mi NNW 3.5 mph - N/A   Scattered Clouds
1:35 AM 26.6 °F - 23.0 °F 86% 30.36 in 10.0 mi Calm Calm - N/A   Mostly Cloudy
1:53 AM 27.0 °F 23.0 °F 24.1 °F 89% 30.45 in 10.0 mi WNW 3.5 mph - N/A   Overcast
2:53 AM 26.1 °F 21.9 °F 23.0 °F 88% 30.47 in 10.0 mi WNW 3.5 mph - N/A   Scattered Clouds
3:53 AM 26.1 °F 21.9 °F 21.9 °F 84% 30.48 in 10.0 mi WNW 3.5 mph - N/A   Mostly Cloudy
4:53 AM 25.0 °F - 21.9 °F 88% 30.49 in 10.0 mi Calm Calm - N/A   Scattered Clouds
5:02 AM 26.6 °F - 21.2 °F 80% 30.40 in 10.0 mi Calm Calm - N/A   Mostly Cloudy
5:53 AM 26.1 °F 21.9 °F 23.0 °F 88% 30.51 in 10.0 mi WNW 3.5 mph - N/A   Overcast
6:05 AM 26.6 °F 22.6 °F 21.2 °F 80% 30.41 in 10.0 mi NW 3.5 mph - N/A   Overcast
6:39 AM 26.6 °F - 21.2 °F 80% 30.42 in 10.0 mi Calm Calm - N/A   Overcast
6:53 AM 26.1 °F - 21.9 °F 84% 30.52 in 10.0 mi Calm Calm - N/A   Overcast
7:53 AM 27.0 °F - 23.0 °F 85% 30.54 in 10.0 mi Calm Calm - N/A   Overcast
8:53 AM 28.4 °F 24.6 °F 23.0 °F 80% 30.45 in 10.0 mi SSW 3.5 mph - N/A   Overcast
9:53 AM 28.9 °F 25.2 °F 24.1 °F 82% 30.56 in 10.0 mi SSW 3.5 mph - N/A   Overcast
10:53 AM 32.0 °F 28.7 °F 24.1 °F 73% 30.53 in 10.0 mi Variable 3.5 mph - N/A   Mostly Cloudy
11:53 AM 34.0 °F 29.8 °F 24.1 °F 67% 30.52 in 10.0 mi West 4.6 mph - N/A   Overcast
12:53 PM 36.0 °F 29.6 °F 25.0 °F 64% 30.48 in 10.0 mi South 8.1 mph - N/A   Overcast
1:12 PM 33.8 °F - 24.8 °F 70% 30.39 in 10.0 mi Calm Calm - N/A   Scattered Clouds
1:29 PM 35.6 °F 28.6 °F 26.6 °F 70% 30.38 in 10.0 mi South 9.2 mph - N/A   Mostly Cloudy
1:53 PM 36.0 °F 28.5 °F 25.0 °F 64% 30.44 in 10.0 mi SSW 10.4 mph - N/A   Mostly Cloudy
2:09 PM 35.6 °F 29.2 °F 26.6 °F 70% 30.35 in 10.0 mi South 8.1 mph - N/A   Scattered Clouds
2:53 PM 37.9 °F 32.7 °F 26.1 °F 62% 30.40 in 10.0 mi South 6.9 mph - N/A   Partly Cloudy
3:53 PM 39.0 °F 35.7 °F 27.0 °F 62% 30.38 in 10.0 mi Variable 4.6 mph - N/A   Scattered Clouds
4:53 PM 39.0 °F 34.0 °F 24.1 °F 55% 30.36 in 10.0 mi WSW 6.9 mph - N/A   Clear
5:53 PM 37.0 °F 31.6 °F 26.1 °F 65% 30.34 in 10.0 mi SSW 6.9 mph - N/A   Clear
6:53 PM 34.0 °F 29.8 °F 26.1 °F 73% 30.34 in 10.0 mi South 4.6 mph - N/A   Clear
7:53 PM 34.0 °F 25.5 °F 26.1 °F 73% 30.32 in 10.0 mi SSW 11.5 mph - N/A   Clear
8:53 PM 34.0 °F 25.5 °F 26.1 °F 73% 30.30 in 10.0 mi SSW 11.5 mph - N/A   Clear
9:53 PM 33.1 °F 24.9 °F 27.0 °F 78% 30.29 in 10.0 mi SSW 10.4 mph - N/A   Clear
10:53 PM 32.0 °F 27.5 °F 26.1 °F 79% 30.27 in 10.0 mi South 4.6 mph - N/A   Clear
11:53 PM 30.9 °F 26.2 °F 25.0 °F 79% 30.25 in 9.0 mi East 4.6 mph - N/A   Clear